COSMOS 886 DEB, 18907

Orbit data source: Space-Track

COSMOS 886 DEB, 18907 is space debris in LEO originally from a launch on Mon, 27 Dec 1976 UTC launched from the Tyuratam Missile And Space Complex (TTMTR). Debris objects in space refer to the collection of defunct objects orbiting the Earth. Examples of debris include non-operational satellites, rocket bodies, and fragments generated from explosions, collisions, or faulty payload assembly.

Loading next visibility...
Identifier
18907, 1976-126BY
Orbit
LEO
Country
Flag of CISCIS
Related business
Manufacturer
Unknown
Mission
Spacecraft
Bus & Motor
Unknown
Mass
Unknown
Launch date (UTC)
1976-12-27 (49 years ago)
Launch vehicle
Unknown
Launch site
Tyuratam Missile And Space Complex (TTMTR)
Object type
Payload
Rocket body
Debris
Shape & HBR
Unknown shape, 0.1 m
Radar Cross Section
Medium (>0.1 m² and <1 m²)

Expand to show TLE details & history
Last TLE update: 19 hours ago

TLE from 19 hours ago
0 COSMOS 886 DEB
1 18907U 76126BY  26174.93575323  .00000879  00000-0  23044-3 0  9994
2 18907  65.8149 359.8292 0860194  24.6170 339.3506 13.31426704848680
Epoch: 2026-06-23T22:27Z
TLE epoch observation values (Epoch: 2026-06-23T22:27:29.079Z)
Latitude
-0.00002°
Longitude
110.85785°
Altitude
545.841 km
Speed
7.885 km/s
True Right ascension
23h 59m 19s
True Declination
0° 00' 00"
Sunlit
Object was in daylight at epoch
Visualization orbit readout
Latitude
Unknown
Longitude
Unknown
Altitude
Unknown
Speed
Unknown
Apparent Right ascension
Unknown
Apparent Declination
Unknown
Sunlit
N/A
Visualization observer readout
Local Sidereal Time
04:42:52
Azimuth
Unknown
Elevation
Unknown
Doppler factor
Unknown
Orbital elements
Apogee altitude
1,786.62 km
Perigee altitude
493.222 km
Semi-major axis
7,518.058 km
Eccentricity
0.08602
Inclination
65.8149°
RAAN
359.8292°
Arg. of periapsis
24.617°
True anomaly
335.49057°
Mean anomaly
339.3506°
Eccentric anomaly
337.46146°
Mean motion
3.32954 °/min
Orbital period
108.12 mins
BSTAR
0.00023044
Loading maneuver chart data...
Computing Atmospheric mass density...
Loading historical data...
Loading historical data...
Loading historical data...
Loading historical data...
Loading historical data...
Loading historical data...
Loading historical data...

Documentation

Showing up to 5 results
|